570  
ASUS41 KPHI 210312  
RWRPHI  
 
REGIONAL WEATHER ROUNDUP  
NATIONAL WEATHER SERVICE MOUNT HOLLY NJ  
1000 PM EST THU FEB 20 2020  
 
NOTE: "FAIR" INDICATES FEW OR NO CLOUDS BELOW 12,000 FEET WITH NO  
SIGNIFICANT WEATHER AND/OR S TO VISIBILITY
.  
 
* = STATION DOES NOT REPORT PRECIPITATION (E.G. RAIN, SNOW, ETC.)  
OR FOG.
 
 
NJZ015>026-210400-  
SOUTHERN NEW JERSEY  
 
CITY SKY/WX TMP DP RH WIND PRES REMARKS
 
POMONA FAIR 32 13 45 N7 30.42R WCI 26  
WILDWOOD* FAIR 34 15 46 N14 30.41S WCI 25  
MILLVILLE FAIR 32 12 43 N8 30.42S WCI 25  
WRIGHTSTOWN FAIR 30 11 44 N14 30.42R WCI 19  
MOUNT HOLLY FAIR 31 13 47 N9 30.44R WCI 23  
TRENTON FAIR 29 10 45 N9 30.44R WCI 20  
 

 
NJZ001>014-210400-  
NORTHERN NEW JERSEY  
 
CITY SKY/WX TMP DP RH WIND PRES REMARKS
 
SUSSEX FAIR 23 9 55 N6 30.45R WCI 16  
ANDOVER* N/A 23 8 52 N8 30.45R WCI 14  
NEWARK MOCLDY 29 6 38 N16 30.45R WCI 17  
TETERBORO FAIR 28 8 43 N12 30.45R WCI 18  
CALDWELL FAIR 28 8 43 N7 30.47R WCI 21  
SOMERVILLE FAIR 28 8 43 N8 30.44R WCI 20  
ALLAIRE* FAIR 30 12 47 NW13 30.43R WCI 20  
TOMS RIVER* FAIR 28 15 58 N6 30.43R WCI 22  
 

 
PAZ043-044-047-054-055-060>062-066>071-210400-  
EASTERN PENNSYLVANIA  
 
CITY SKY/WX TMP DP RH WIND PRES REMARKS
 
PHILADELPHIA MOCLDY 32 11 41 N9 30.45R WCI 24  
NORTH PHILA FAIR 32 12 43 N13 30.45R WCI 22  
BLUE BELL* FAIR 29 15 57 N5 30.44R WCI 23  
DOYLESTOWN FAIR 29 9 43 N8 30.43R WCI 21  
QUAKERTOWN* CLEAR 27 12 54 VRB7 30.44 WCI 19  
PERKASIE* FAIR 27 10 50 N6 30.44R WCI 20  
POTTSTOWN FAIR 25 15 66 N9 30.45R WCI 15  
LANCASTER FAIR 27 16 63 N7 30.44R WCI 19  
COATESVILLE FAIR 28 16 59 N7G14 30.43R WCI 21  
WEST CHESTER FAIR 30 14 51 N9 30.43S WCI 22  
READING FAIR 25 16 68 N7 30.44R WCI 17  
ALLENTOWN FAIR 26 9 48 N9 30.45R WCI 17  
QN CITY/ALNTWN FAIR 28 14 54 N8 30.47R WCI 20  
MOUNT POCONO FAIR 15 6 67 NW12 30.34R WCI 2  
HAZLETON FAIR 19 9 63 NW6 30.42R WCI 11  
WILKES BARRE FAIR 20 7 57 N7 30.44R WCI 11  
 

 
DEZALL-MDZ008-012-015-019-020-210400-  
DELAWARE AND EASTERN MARYLAND  
 
CITY SKY/WX TMP DP RH WIND PRES REMARKS
 
WILMINGTON FAIR 31 13 47 N9 30.45R WCI 23  
DOVER FAIR 33 17 53 N14 30.41S WCI 23  
CHESWOLD CLEAR 32 16 51 N6 30.42S WCI 26  
GEORGETOWN FAIR 35 18 49 N7 30.40F WCI 29  
EASTON CLEAR 36 16 44 N8 30.45R WCI 29  
STEVENSVILLE FAIR 34 16 47 N9 30.43S WCI 26  
ABERDEEN CLOUDY 31 16 53 N7 30.44S WCI 24  
PATUXENT CLOUDY 37 22 54 NE12 30.40 WCI 29  
OCEAN CITY CLOUDY 32 31 96 CALM 30.39F  
WALLOPS ISLAND LGT SNOW 32 31 96 N8 30.38F FOG WCI 25  
CAMBRIDGE N/A 36 18 48 NE6 30.40S WCI 31  
SALISBURY CLOUDY 33 29 85 N3 30.39S  
 

 
PAZ001-021-NYZ056-072-MDZ011-DCZ001-210400-  
OTHER NEARBY LOCATIONS  
 
CITY SKY/WX TMP DP RH WIND PRES REMARKS
 
HARRISBURG MOCLDY 31 16 54 N10 30.46R WCI 22  
STATE COLLEGE PTCLDY 19 5 53 N9G16 30.45R WCI 9  
WILLIAMSPORT FAIR 22 10 60 CALM 30.49R  
BINGHAMTON FAIR 12 6 77 NW3 30.39R  
NEW YORK CITY FAIR 30 7 37 MISG 30.46R  
BALTIMORE CLOUDY 35 15 44 N7 30.43R WCI 29  
WASHINGTON DC CLOUDY 36 17 46 N17 30.44R WCI 26  
 

 
 
 
CLICK HERE TO GO TO PREVIOUS BULLETINS.

The Nexlab PA Page
The Nexlab NJ Page
The Nexlab DE Page
The Nexlab MD Page Main Text Page